Weather Roundup
Issued by NWS

Home | Current Version | Previous Version | Graphics & Text | Print | Product List | Glossary Off
Versions: 1 2 3 4 5 6 7 8 9 10 11 12 13 14 15 16 17 18 19 20 21 22 23 24 25 26 27 28 29 30 31 32 33 34 35 36 37 38 39 40 41 42 43 44 45 46 47 48 49 50

000
NZUS93 KARX 290959
HRRWXR

CURRENT HOURLY OBSERVATIONS ACROSS
MUCH OF THE UPPER MISSISSIPPI VALLEY
NATIONAL WEATHER SERVICE LA CROSSE WI
400 AM CST THU JAN 29 2015


...SOUTHEAST MINNESOTA...


CITY           SKY/WX    TMP DP  RH WIND       PRES   REMARKS
ROCHESTER      FRZ RAIN  30  29  96 NW20      29.88R FOG     WCI  17
ROCHESTER/MAYO CLOUDY    31  30  96 NW15G24   29.89R WCI  20
WINONA         CLOUDY    32  30  93 NW10G16   29.87R WCI  24
AUSTIN         CLOUDY    32  30  93 NW18G24   29.90R FOG     WCI  20
ALBERT LEA     CLOUDY    34  34 100 NW14G25   29.92R FOG     WCI  24
DODGE CENTER   CLOUDY    32  30  93 NW16G23   29.89R FOG     WCI  21
PRESTON        CLOUDY    30  28  91 N15G28    29.87R FOG     WCI  19
OWATONNA       CLOUDY    34  30  86 NW17G23   29.93R FOG     WCI  23
FARIBAULT      CLOUDY    34  30  86 NW13G20   29.94R WCI  25
$$

...ELSEWHERE IN MINNESOTA...


CITY           SKY/WX    TMP DP  RH WIND       PRES   REMARKS
MINNEAPOLIS    CLOUDY    33  30  88 NW14      29.94R WCI  23
INTNL FALLS    CLOUDY    22  18  85 NW18G28   30.00R WCI   7
DULUTH         FLURRIES  29  23  78 N26G35    29.85R WCI  14
RED WING       CLOUDY    32  30  93 NW7       29.91R FOG     WCI  26
REDWOOD FALLS  CLOUDY    32  27  81 NW15G28   30.06R WCI  22
MANKATO        CLOUDY    34  28  80 NW18G29   29.97R WCI  23
WORTHINGTON    CLOUDY   N/A N/A N/A NW26G38   30.07R
FAIRMONT       CLOUDY    34  27  75 NW23G32   29.99R WCI  22
$$

...SOUTHWEST WISCONSIN...


CITY           SKY/WX    TMP DP  RH WIND       PRES   REMARKS
LA CROSSE      CLOUDY    32  28  85 NW13      29.85R WCI  22
PRAIRIE DU CHI CLOUDY    32  30  93 NW7       29.81S FOG     WCI  26
BOSCOBEL       CLOUDY    34  29  82 N7        29.81R HAZE    WCI  28
LONE ROCK      CLOUDY    32  29  88 NW6       29.78R FOG     WCI  26
PLATTEVILLE    CLOUDY    32  31  94 NW12      29.75R WCI  23
FORT MC COY    CLOUDY    29  29 100 NW3       29.83R FOG
CAMP DOUGLAS   CLOUDY    28  28 100 NW7       29.80S FOG     WCI  21
VIROQUA        CLOUDY    30  30 100 NW10G16   29.79R WCI  21
WIS DELLS      NOT AVBL
$$

...ELSEWHERE IN WISCONSIN...


CITY           SKY/WX    TMP DP  RH WIND       PRES   REMARKS
MILWAUKEE      CLOUDY    33  26  75 CALM      29.73F
MADISON        CLOUDY    31  26  82 N5        29.74S WCI  26
GREEN BAY      CLOUDY    30  25  81 CALM      29.77F HAZE
EAU CLAIRE     CLOUDY    30  26  85 NW9       29.85R FOG     WCI  22
BLACK RVR FLS  CLOUDY    29  29 100 NW6       29.82S FOG     WCI  23
MEDFORD        CLOUDY    25  24  96 NW8       29.78S FOG     WCI  17
WAUSAU         CLOUDY    26  25  96 NW6       29.76F FOG     WCI  19
WIS RAPIDS     CLOUDY    27  24  89 NW5       29.80S FOG     WCI  22
MARSHFIELD     FOG       27  25  92 NW12      29.79R VSB 1   WCI  17
RICE LAKE      CLOUDY    30  28  94 NW7       29.86S FOG     WCI  23
$$

...NORTHEAST IOWA...


CITY           SKY/WX    TMP DP  RH WIND       PRES   REMARKS
DECORAH        CLOUDY    32  30  93 N17G28    29.82R FOG     WCI  21
MASON CITY     CLOUDY    33  31  92 NW23      29.94R WCI  21
CHARLES CITY   CLOUDY    32  32 100 NW18G25   29.88R WCI  20
OELWEIN        CLOUDY    32  32 100 N21       29.84R FOG     WCI  20
$$

...ELSEWHERE IN IOWA...


CITY           SKY/WX    TMP DP  RH WIND       PRES   REMARKS
DES MOINES     DRIZZLE   37  31  78 NW20G26   29.97R WCI  27
IOWA CITY      CLOUDY    34  32  92 NW16G24   29.84R FOG     WCI  24
FORT DODGE     CLOUDY    34  28  80 NW12G23   30.00R WCI  25
$$

...NORTHERN ILLINOIS...


CITY           SKY/WX    TMP DP  RH WIND       PRES   REMARKS
CHICAGO-OHARE  MOCLDY    33  27  78 S7        29.70F WCI  27
CHICAGO-MIDWAY CLOUDY    39  28  64 S9        29.71F WCI  33
MOLINE         CLOUDY    34  29  82 NW14      29.74R WCI  25
ROCKFORD       CLOUDY    31  27  85 NE3       29.72F
PEORIA         CLOUDY    39  33  79 SW7       29.68S WCI  34
$$

NOTE: "FAIR" INDICATES FEW OR NO CLOUDS BELOW 12,000 FEET WITH NO
SIGNIFICANT WEATHER AND/OR OBSTRUCTIONS TO VISIBILITY. WIND
SPEEDS ARE IN MILES-PER-HOUR.



USA.gov is the U.S. government's official web portal to all federal, state and local government web resources and services.